Location: Acequia del Cap
(41.7000°N, 0.6167°E)
Time: 16:48:01
(UTC+00:00)

GEOS 3 Rocket - Pass Details

Date: 07 August 2020
Orbit: 770 x 849 km, 115.0° (Epoch: 22 September)

Event Time Altitude Azimuth Distance (km) Brightness Sun altitude
Rises 00:36:14 0° 37° (NE) 3,417 7.7 -31.5°
Reaches altitude 10° 00:38:34 10° 39° (NE) 2,480 6.8 -31.4°
Enters shadow 00:42:45 54° 57° (ENE) 1,030 4.2 -31.3°
